Total_Precipitation_Accumulation
0.00 0.00 0.02 0.09 0.22 0.42 0.58 0.39 0.31 0.23 0.23 0.26 0.35 0.34 0.27 0.27 0.25 0.22 0.07 0.02 0.00 0.00 0.01 0.04 0.08 0.07 0.04 0.04 0.06 0.07 0.10 0.11 0.11 0.11 0.11 0.08 0.04 0.03 0.01 0.01 0.01 0.01 0.02 0.02 0.02 0.02 0.02 0.02 0.01
0.00 0.00 0.03 0.09 0.20 0.53 0.71 0.34 0.24 0.25 0.22 0.33 0.38 0.27 0.19 0.19 0.13 0.07 0.05 0.02 0.01 0.01 0.00 0.01 0.05 0.06 0.04 0.04 0.05 0.06 0.07 0.08 0.09 0.09 0.08 0.05 0.03 0.02 0.02 0.01 0.01 0.02 0.03 0.03 0.03 0.03 0.02 0.01 0.01
0.00 0.00 0.02 0.05 0.12 0.35 0.46 0.26 0.22 0.28 0.37 0.51 0.54 0.31 0.22 0.16 0.13 0.08 0.03 0.01 0.01 0.01 0.01 0.02 0.04 0.04 0.03 0.03 0.03 0.04 0.05 0.05 0.06 0.06 0.06 0.04 0.03 0.02 0.02 0.02 0.02 0.03 0.04 0.05 0.04 0.04 0.03 0.02 0.01
0.00 0.01 0.02 0.02 0.08 0.17 0.26 0.18 0.25 0.33 0.56 0.63 0.60 0.41 0.28 0.24 0.17 0.11 0.03 0.01 0.01 0.01 0.01 0.03 0.04 0.04 0.03 0.03 0.04 0.04 0.04 0.04 0.04 0.04 0.04 0.03 0.02 0.03 0.03 0.03 0.03 0.05 0.06 0.07 0.06 0.06 0.05 0.03 0.02
0.00 0.01 0.02 0.02 0.04 0.09 0.12 0.10 0.17 0.27 0.46 0.61 0.56 0.51 0.40 0.38 0.24 0.10 0.03 0.01 0.01 0.01 0.02 0.03 0.05 0.05 0.04 0.04 0.04 0.05 0.05 0.05 0.04 0.04 0.03 0.03 0.03 0.04 0.05 0.05 0.05 0.06 0.08 0.09 0.09 0.08 0.08 0.07 0.05
0.00 0.01 0.01 0.01 0.03 0.06 0.08 0.09 0.19 0.34 0.51 0.61 0.67 0.64 0.47 0.32 0.18 0.08 0.03 0.02 0.02 0.02 0.02 0.04 0.05 0.05 0.05 0.05 0.05 0.06 0.06 0.05 0.06 0.05 0.04 0.04 0.05 0.05 0.06 0.08 0.09 0.09 0.10 0.09 0.09 0.09 0.09 0.08 0.08
0.00 0.00 0.00 0.00 0.01 0.03 0.07 0.12 0.23 0.36 0.43 0.60 0.85 0.76 0.45 0.31 0.20 0.12 0.07 0.04 0.03 0.03 0.03 0.04 0.05 0.06 0.07 0.07 0.07 0.07 0.07 0.08 0.08 0.07 0.06 0.05 0.05 0.05 0.07 0.09 0.11 0.12 0.12 0.11 0.11 0.10 0.10 0.11 0.11
0.00 0.00 0.00 0.00 0.00 0.02 0.06 0.13 0.24 0.36 0.59 0.77 0.75 0.65 0.55 0.36 0.29 0.24 0.13 0.09 0.08 0.07 0.06 0.05 0.08 0.14 0.14 0.13 0.12 0.11 0.11 0.10 0.08 0.07 0.06 0.06 0.06 0.09 0.13 0.13 0.15 0.18 0.19 0.18 0.18 0.19 0.21 0.22 0.20
0.00 0.00 0.00 0.00 0.00 0.03 0.10 0.19 0.25 0.31 0.49 0.61 0.63 0.57 0.39 0.31 0.36 0.33 0.20 0.14 0.11 0.08 0.09 0.12 0.17 0.19 0.22 0.23 0.23 0.23 0.23 0.23 0.19 0.19 0.19 0.16 0.16 0.22 0.35 0.36 0.41 0.39 0.39 0.41 0.40 0.41 0.44 0.43 0.31
0.00 0.00 0.00 0.00 0.00 0.03 0.09 0.17 0.29 0.35 0.59 0.85 0.86 0.87 0.56 0.50 0.49 0.41 0.31 0.21 0.18 0.18 0.24 0.26 0.26 0.26 0.27 0.29 0.43 0.50 0.52 0.59 0.52 0.53 0.53 0.50 0.48 0.43 0.42 0.59 0.71 0.78 0.88 0.87 0.86 0.99 0.88 0.64 0.43
0.00 0.00 0.00 0.00 0.00 0.01 0.04 0.09 0.13 0.30 0.68 1.03 0.96 0.93 0.75 0.66 0.61 0.55 0.51 0.47 0.40 0.37 0.33 0.32 0.34 0.40 0.48 0.57 0.62 0.68 0.76 0.89 0.98 1.03 1.03 1.07 0.95 0.78 0.72 0.93 1.08 1.07 1.10 0.97 1.21 1.46 1.06 0.97 0.94
0.00 0.00 0.00 0.00 0.00 0.01 0.03 0.10 0.18 0.32 0.73 0.95 0.80 0.66 0.61 0.69 0.77 0.76 0.84 0.81 0.78 0.64 0.59 0.60 0.59 0.62 0.66 0.71 0.70 0.74 0.76 0.87 0.93 1.05 1.17 1.31 1.31 1.18 1.18 1.30 1.18 1.12 1.12 1.27 1.36 1.47 1.32 1.24 1.23
0.00 0.00 0.00 0.00 0.00 0.01 0.04 0.14 0.26 0.37 0.63 0.59 0.46 0.47 0.74 0.88 0.97 1.03 1.06 1.03 0.95 0.99 1.06 1.05 0.99 0.93 0.86 0.76 0.72 0.72 0.71 0.69 0.69 0.81 1.06 1.25 1.34 1.38 1.46 1.30 1.15 1.00 1.23 1.48 1.50 1.37 1.44 1.44 1.53
0.00 0.00 0.01 0.02 0.01 0.02 0.04 0.08 0.30 0.40 0.51 0.56 0.50 0.59 0.93 1.26 1.29 1.26 1.27 1.35 1.34 1.36 1.45 1.41 1.42 1.36 1.14 0.92 0.79 0.74 0.68 0.70 0.75 0.83 0.96 1.14 1.24 1.31 1.35 1.28 1.17 1.12 1.28 1.44 1.45 1.40 1.55 1.59 1.55
0.00 0.03 0.09 0.07 0.03 0.03 0.04 0.15 0.38 0.54 0.54 0.69 0.71 0.80 1.07 1.30 1.25 1.38 1.43 1.52 1.66 1.81 1.99 2.06 2.00 1.85 1.67 1.43 1.14 0.93 0.83 0.82 0.87 0.91 0.86 0.90 1.01 1.04 1.14 1.14 1.12 1.17 1.22 1.25 1.22 1.22 1.37 1.32 1.19
0.01 0.07 0.21 0.15 0.06 0.06 0.10 0.48 0.69 0.60 0.51 0.70 0.87 0.99 1.21 1.41 1.37 1.51 1.61 1.74 2.05 2.32 2.66 2.81 2.67 2.39 1.98 1.62 1.38 1.22 1.14 1.09 0.97 0.89 0.77 0.66 0.72 0.79 0.86 0.84 0.88 0.94 0.99 1.00 0.95 0.97 1.05 1.10 1.16
0.02 0.07 0.18 0.17 0.12 0.09 0.17 0.61 0.64 0.39 0.49 0.68 0.93 1.16 1.26 1.31 1.47 1.73 1.89 2.15 2.72 3.39 3.76 3.59 3.09 2.69 2.12 1.61 1.36 1.33 1.37 1.28 1.11 1.00 0.86 0.71 0.66 0.70 0.76 0.74 0.73 0.71 0.73 0.76 0.72 0.78 0.87 0.92 0.97
0.03 0.06 0.13 0.19 0.14 0.19 0.28 0.39 0.49 0.50 0.65 0.81 0.95 1.01 1.15 1.23 1.40 1.67 1.90 2.31 2.97 3.85 4.40 4.22 3.47 2.72 2.15 1.79 1.56 1.40 1.35 1.22 1.06 0.97 0.85 0.70 0.62 0.61 0.59 0.57 0.54 0.50 0.51 0.55 0.58 0.67 0.75 0.77 0.83
0.03 0.06 0.12 0.20 0.15 0.22 0.30 0.40 0.53 0.66 0.86 0.86 0.85 0.83 0.92 1.13 1.33 1.53 1.81 2.24 2.64 3.08 3.44 3.34 2.63 2.06 1.73 1.44 1.08 0.91 0.89 0.80 0.71 0.69 0.64 0.61 0.56 0.52 0.47 0.41 0.40 0.37 0.36 0.38 0.40 0.47 0.55 0.59 0.66
0.04 0.07 0.12 0.17 0.13 0.12 0.23 0.48 0.60 0.68 0.81 0.77 0.74 0.62 0.67 1.06 1.42 1.72 2.01 2.16 1.96 1.96 1.96 1.49 1.16 0.95 0.80 0.69 0.52 0.42 0.38 0.36 0.34 0.35 0.35 0.33 0.37 0.40 0.39 0.37 0.36 0.35 0.34 0.33 0.36 0.41 0.44 0.47 0.54
0.07 0.08 0.09 0.15 0.16 0.19 0.32 0.60 0.74 0.67 0.65 0.55 0.54 0.60 0.96 1.41 1.69 1.95 1.85 1.57 1.35 1.23 1.01 0.67 0.50 0.50 0.43 0.35 0.26 0.23 0.21 0.21 0.21 0.22 0.22 0.22 0.23 0.26 0.29 0.33 0.36 0.35 0.31 0.30 0.32 0.34 0.35 0.35 0.38
0.07 0.06 0.04 0.04 0.11 0.30 0.43 0.82 0.92 0.78 0.69 0.47 0.49 0.78 1.28 1.57 1.76 1.60 1.04 0.68 0.60 0.55 0.52 0.54 0.54 0.44 0.33 0.28 0.20 0.15 0.13 0.13 0.13 0.15 0.15 0.17 0.16 0.16 0.18 0.24 0.29 0.30 0.31 0.31 0.25 0.26 0.31 0.31 0.28
0.04 0.03 0.03 0.05 0.12 0.28 0.50 0.92 1.07 0.82 0.63 0.41 0.33 0.43 0.78 1.02 0.90 0.54 0.29 0.19 0.23 0.31 0.48 0.70 0.71 0.50 0.34 0.29 0.24 0.22 0.20 0.18 0.17 0.17 0.18 0.20 0.20 0.20 0.17 0.17 0.22 0.27 0.33 0.38 0.34 0.32 0.30 0.29 0.26
0.03 0.04 0.09 0.17 0.28 0.55 0.59 0.74 0.91 0.73 0.59 0.43 0.26 0.30 0.53 0.54 0.34 0.18 0.13 0.16 0.23 0.27 0.35 0.44 0.53 0.60 0.53 0.47 0.37 0.34 0.33 0.31 0.28 0.26 0.25 0.25 0.26 0.28 0.27 0.27 0.30 0.33 0.33 0.34 0.36 0.39 0.38 0.36 0.33
0.03 0.04 0.24 0.55 0.71 0.68 0.46 0.61 0.81 0.50 0.37 0.27 0.15 0.13 0.15 0.16 0.16 0.18 0.20 0.22 0.20 0.16 0.15 0.17 0.21 0.31 0.37 0.40 0.42 0.42 0.41 0.37 0.32 0.28 0.24 0.27 0.25 0.27 0.29 0.29 0.33 0.37 0.37 0.34 0.32 0.33 0.38 0.45 0.45
0.03 0.03 0.08 0.15 0.21 0.29 0.38 0.69 0.73 0.43 0.21 0.09 0.04 0.03 0.02 0.03 0.05 0.07 0.09 0.08 0.07 0.07 0.08 0.07 0.08 0.09 0.12 0.14 0.18 0.22 0.28 0.27 0.26 0.30 0.24 0.25 0.29 0.29 0.27 0.25 0.25 0.28 0.31 0.32 0.30 0.26 0.27 0.34 0.43
0.02 0.02 0.02 0.03 0.06 0.19 0.45 0.63 0.46 0.25 0.13 0.05 0.03 0.02 0.01 0.01 0.01 0.01 0.02 0.03 0.04 0.03 0.04 0.04 0.04 0.04 0.04 0.05 0.05 0.06 0.11 0.15 0.16 0.17 0.16 0.17 0.24 0.26 0.24 0.22 0.20 0.20 0.23 0.26 0.27 0.26 0.27 0.27 0.28
0.02 0.02 0.02 0.03 0.06 0.13 0.32 0.63 0.61 0.28 0.17 0.07 0.03 0.02 0.02 0.01 0.01 0.00 0.01 0.01 0.01 0.02 0.02 0.03 0.04 0.03 0.03 0.02 0.02 0.02 0.04 0.08 0.10 0.11 0.12 0.15 0.18 0.21 0.20 0.17 0.14 0.14 0.15 0.17 0.22 0.25 0.28 0.33 0.36
0.03 0.02 0.03 0.04 0.05 0.07 0.18 0.34 0.27 0.20 0.13 0.06 0.02 0.00 0.00 0.00 0.00 0.01 0.00 0.00 0.01 0.01 0.01 0.02 0.02 0.02 0.02 0.02 0.01 0.01 0.01 0.02 0.06 0.11 0.15 0.18 0.20 0.20 0.20 0.17 0.15 0.12 0.12 0.15 0.18 0.21 0.27 0.33 0.42
0.03 0.04 0.03 0.04 0.04 0.05 0.09 0.15 0.14 0.13 0.09 0.04 0.01 0.00 0.00 0.00 0.00 0.00 0.00 0.00 0.01 0.01 0.01 0.01 0.01 0.01 0.01 0.00 0.00 0.00 0.00 0.00 0.01 0.03 0.08 0.14 0.20 0.21 0.21 0.20 0.17 0.12 0.10 0.12 0.14 0.16 0.21 0.29 0.39